Time,TemperatureF,DewpointF,PressureIn,WindDirection,WindDirectionDegrees,WindSpeedMPH,WindSpeedGustMPH,Humidity,HourlyPrecipIn,Conditions,Clouds,dailyrainin,SoftwareType,DateUTC
2013-03-12 00:04:00,38.1,35.2,30.12,West,270,0.0,-999.0,89,-99.99,,,0.00,Acu-Link.com,2013-03-12 04:04:00,
2013-03-12 00:20:00,37.6,34.7,30.11,NNW,337,0.0,-999.0,89,-99.99,,,0.00,Acu-Link.com,2013-03-12 04:20:00,
2013-03-12 00:35:00,37.4,34.5,30.10,North,0,0.0,-999.0,89,-99.99,,,0.00,Acu-Link.com,2013-03-12 04:35:00,
2013-03-12 00:50:00,37.4,34.7,30.11,SSW,202,0.0,-999.0,90,-99.99,,,0.00,Acu-Link.com,2013-03-12 04:50:00,
2013-03-12 01:06:00,37.4,35.0,30.10,NNW,337,0.0,-999.0,91,-99.99,,,0.00,Acu-Link.com,2013-03-12 05:06:00,
2013-03-12 01:36:00,38.5,36.4,30.10,East,90,0.0,-999.0,92,-99.99,,,0.00,Acu-Link.com,2013-03-12 05:36:00,
2013-03-12 01:51:00,39.2,37.1,30.09,NNE,22,1.7,-999.0,92,-99.99,,,0.00,Acu-Link.com,2013-03-12 05:51:00,
2013-03-12 02:07:00,39.6,37.5,30.09,East,90,1.1,-999.0,92,-99.99,,,0.00,Acu-Link.com,2013-03-12 06:07:00,
2013-03-12 02:22:00,39.9,37.8,30.07,ESE,112,1.7,-999.0,92,-99.99,,,0.00,Acu-Link.com,2013-03-12 06:22:00,
2013-03-12 02:37:00,39.7,37.6,30.08,North,0,0.0,-999.0,92,-99.99,,,0.00,Acu-Link.com,2013-03-12 06:37:00,
2013-03-12 02:52:00,40.1,38.0,30.07,East,90,0.0,-999.0,92,-99.99,,,0.00,Acu-Link.com,2013-03-12 06:52:00,
2013-03-12 03:08:00,40.6,38.7,30.06,SE,135,1.1,-999.0,93,-99.99,,,0.00,Acu-Link.com,2013-03-12 07:08:00,
2013-03-12 03:23:00,40.8,38.9,30.05,SSW,202,1.1,-999.0,93,-99.99,,,0.00,Acu-Link.com,2013-03-12 07:23:00,
2013-03-12 03:38:00,41.0,39.1,30.04,North,0,0.0,-999.0,93,-99.99,,,0.00,Acu-Link.com,2013-03-12 07:38:00,
2013-03-12 03:54:00,41.4,39.5,30.04,SSE,157,0.0,-999.0,93,-99.99,,,0.00,Acu-Link.com,2013-03-12 07:54:00,
2013-03-12 04:09:00,41.4,39.5,30.04,West,270,1.7,-999.0,93,-99.99,,,0.00,Acu-Link.com,2013-03-12 08:09:00,
2013-03-12 04:24:00,41.5,39.6,30.05,West,270,0.0,-999.0,93,-99.99,,,0.00,Acu-Link.com,2013-03-12 08:24:00,
2013-03-12 04:39:00,41.5,39.6,30.03,SSW,202,0.0,-999.0,93,-99.99,,,0.00,Acu-Link.com,2013-03-12 08:39:00,
2013-03-12 04:54:00,41.5,39.6,30.04,West,270,0.0,-999.0,93,-99.99,,,0.00,Acu-Link.com,2013-03-12 08:54:00,
2013-03-12 05:09:00,41.4,39.5,30.03,North,0,0.0,-999.0,93,-99.99,,,0.00,Acu-Link.com,2013-03-12 09:09:00,
2013-03-12 05:24:00,41.5,39.6,30.03,East,90,0.0,-999.0,93,-99.99,,,0.00,Acu-Link.com,2013-03-12 09:24:00,
2013-03-12 05:40:00,41.7,40.1,30.03,East,90,2.2,-999.0,94,-99.99,,,0.00,Acu-Link.com,2013-03-12 09:40:00,
2013-03-12 05:55:00,41.7,40.1,30.02,NNE,22,0.0,-999.0,94,-99.99,,,0.00,Acu-Link.com,2013-03-12 09:55:00,
2013-03-12 06:10:00,41.9,40.3,30.03,NW,315,0.0,-999.0,94,-99.99,,,0.00,Acu-Link.com,2013-03-12 10:10:00,
2013-03-12 06:26:00,41.9,40.3,30.02,NE,45,3.2,-999.0,94,-99.99,,,0.00,Acu-Link.com,2013-03-12 10:26:00,
2013-03-12 06:56:00,41.7,40.1,30.01,NNE,22,0.0,-999.0,94,-99.99,,,0.00,Acu-Link.com,2013-03-12 10:56:00,
2013-03-12 07:12:00,41.7,40.1,30.00,SSE,157,1.7,-999.0,94,-99.99,,,0.00,Acu-Link.com,2013-03-12 11:12:00,
2013-03-12 07:27:00,41.7,40.1,30.01,ENE,67,0.0,-999.0,94,-99.99,,,0.00,Acu-Link.com,2013-03-12 11:27:00,
2013-03-12 07:42:00,42.1,40.5,30.00,East,90,1.1,-999.0,94,-99.99,,,0.00,Acu-Link.com,2013-03-12 11:42:00,
2013-03-12 07:57:00,42.4,40.8,30.00,NNW,337,0.0,-999.0,94,-99.99,,,0.00,Acu-Link.com,2013-03-12 11:57:00,
2013-03-12 08:12:00,42.4,40.8,30.01,West,270,0.0,-999.0,94,-99.99,,,0.00,Acu-Link.com,2013-03-12 12:12:00,
2013-03-12 08:28:00,42.8,41.2,30.00,NNW,337,0.0,-999.0,94,-99.99,,,0.00,Acu-Link.com,2013-03-12 12:28:00,
2013-03-12 08:43:00,43.3,41.7,30.00,SSW,202,1.7,-999.0,94,-99.99,,,0.00,Acu-Link.com,2013-03-12 12:43:00,
2013-03-12 08:58:00,43.9,42.3,30.00,SE,135,1.7,-999.0,94,-99.99,,,0.00,Acu-Link.com,2013-03-12 12:58:00,
2013-03-12 09:14:00,44.4,42.8,30.01,SW,225,0.0,-999.0,94,-99.99,,,0.00,Acu-Link.com,2013-03-12 13:14:00,
2013-03-12 09:29:00,44.8,43.2,30.00,NW,315,1.1,-999.0,94,-99.99,,,0.00,Acu-Link.com,2013-03-12 13:29:00,
2013-03-12 09:44:00,45.0,43.4,29.99,SW,225,1.1,-999.0,94,-99.99,,,0.00,Acu-Link.com,2013-03-12 13:44:00,
2013-03-12 10:00:00,45.5,43.9,29.99,SE,135,1.7,-999.0,94,-99.99,,,0.00,Acu-Link.com,2013-03-12 14:00:00,
2013-03-12 10:15:00,46.2,44.6,29.99,SSW,202,2.2,-999.0,94,-99.99,,,0.00,Acu-Link.com,2013-03-12 14:15:00,
2013-03-12 10:30:00,46.8,45.4,29.97,ESE,112,0.0,-999.0,95,-99.99,,,0.00,Acu-Link.com,2013-03-12 14:30:00,
2013-03-12 10:45:00,47.3,45.7,29.97,SSE,157,2.2,-999.0,94,-99.99,,,0.00,Acu-Link.com,2013-03-12 14:45:00,
2013-03-12 11:00:00,48.0,45.8,29.97,North,0,1.7,-999.0,92,-99.99,,,0.00,Acu-Link.com,2013-03-12 15:00:00,
2013-03-12 11:31:00,49.8,46.7,29.96,NNE,22,1.7,-999.0,89,-99.99,,,0.00,Acu-Link.com,2013-03-12 15:31:00,
2013-03-12 11:46:00,50.0,46.6,29.95,SSE,157,1.7,-999.0,88,-99.99,,,0.00,Acu-Link.com,2013-03-12 15:46:00,
2013-03-12 12:01:00,50.7,47.3,29.94,SW,225,2.7,-999.0,88,-99.99,,,0.00,Acu-Link.com,2013-03-12 16:01:00,
2013-03-12 12:16:00,51.3,47.9,29.94,SSW,202,1.1,-999.0,88,-99.99,,,0.00,Acu-Link.com,2013-03-12 16:16:00,
2013-03-12 12:32:00,52.2,48.1,29.93,SSE,157,4.7,-999.0,86,-99.99,,,0.00,Acu-Link.com,2013-03-12 16:32:00,
2013-03-12 12:47:00,53.1,48.4,29.91,South,180,1.7,-999.0,84,-99.99,,,0.00,Acu-Link.com,2013-03-12 16:47:00,
2013-03-12 13:02:00,53.4,48.4,29.92,SE,135,2.7,-999.0,83,-99.99,,,0.00,Acu-Link.com,2013-03-12 17:02:00,
2013-03-12 13:18:00,53.4,48.4,29.90,ESE,112,2.2,-999.0,83,-99.99,,,0.00,Acu-Link.com,2013-03-12 17:18:00,
2013-03-12 13:33:00,53.2,47.8,29.90,West,270,3.2,-999.0,82,-99.99,,,0.00,Acu-Link.com,2013-03-12 17:33:00,
2013-03-12 13:48:00,54.1,48.7,29.89,East,90,4.2,-999.0,82,-99.99,,,0.00,Acu-Link.com,2013-03-12 17:48:00,
2013-03-12 14:03:00,54.7,49.0,29.88,West,270,1.7,-999.0,81,-99.99,,,0.00,Acu-Link.com,2013-03-12 18:03:00,
2013-03-12 14:19:00,55.0,48.9,29.87,SSW,202,4.2,-999.0,80,-99.99,,,0.00,Acu-Link.com,2013-03-12 18:19:00,
2013-03-12 14:34:00,54.9,48.8,29.87,NNE,22,2.2,-999.0,80,-99.99,,,0.00,Acu-Link.com,2013-03-12 18:34:00,
2013-03-12 14:49:00,54.7,49.3,29.86,SE,135,2.7,-999.0,82,-99.99,,,0.00,Acu-Link.com,2013-03-12 18:49:00,
2013-03-12 15:04:00,53.8,48.8,29.85,South,180,2.2,-999.0,83,-99.99,,,0.00,Acu-Link.com,2013-03-12 19:04:00,
2013-03-12 15:19:00,53.8,49.1,29.85,SSW,202,3.2,-999.0,84,-99.99,,,0.00,Acu-Link.com,2013-03-12 19:19:00,
2013-03-12 15:34:00,54.0,49.3,29.83,SE,135,4.7,-999.0,84,-99.99,,,0.00,Acu-Link.com,2013-03-12 19:34:00,
2013-03-12 15:50:00,53.4,49.0,29.83,NNE,22,6.3,-999.0,85,-99.99,,,0.00,Acu-Link.com,2013-03-12 19:50:00,
2013-03-12 16:05:00,53.1,49.3,29.81,SE,135,9.9,-999.0,87,-99.99,,,0.00,Acu-Link.com,2013-03-12 20:05:00,
2013-03-12 16:20:00,53.1,49.3,29.81,NE,45,1.1,-999.0,87,-99.99,,,0.00,Acu-Link.com,2013-03-12 20:20:00,
2013-03-12 16:35:00,52.3,48.9,29.80,WSW,247,3.2,-999.0,88,-99.99,,,0.00,Acu-Link.com,2013-03-12 20:35:00,
2013-03-12 16:50:00,52.0,48.9,29.79,WSW,247,4.2,-999.0,89,-99.99,,,0.00,Acu-Link.com,2013-03-12 20:50:00,
2013-03-12 17:05:00,51.4,48.9,29.78,SSE,157,3.7,-999.0,91,-99.99,,,0.01,Acu-Link.com,2013-03-12 21:05:00,
2013-03-12 17:20:00,51.3,49.1,29.77,WNW,292,3.2,-999.0,92,-99.99,,,0.01,Acu-Link.com,2013-03-12 21:20:00,
2013-03-12 17:36:00,51.1,48.9,29.76,South,180,2.2,-999.0,92,-99.99,,,0.02,Acu-Link.com,2013-03-12 21:36:00,
2013-03-12 18:06:00,50.9,48.9,29.73,WSW,247,2.7,-999.0,93,-99.99,,,0.11,Acu-Link.com,2013-03-12 22:06:00,
2013-03-12 18:22:00,50.9,49.2,29.72,SSE,157,3.7,-999.0,94,-99.99,,,0.15,Acu-Link.com,2013-03-12 22:22:00,
2013-03-12 18:37:00,51.1,49.4,29.71,SW,225,6.8,-999.0,94,-99.99,,,0.20,Acu-Link.com,2013-03-12 22:37:00,
2013-03-12 19:07:00,51.3,49.6,29.71,South,180,3.2,-999.0,94,-99.99,,,0.27,Acu-Link.com,2013-03-12 23:07:00,
2013-03-12 19:23:00,51.3,49.6,29.70,SSE,157,1.7,-999.0,94,-99.99,,,0.31,Acu-Link.com,2013-03-12 23:23:00,
2013-03-12 19:38:00,51.3,49.6,29.69,SW,225,2.7,-999.0,94,-99.99,,,0.38,Acu-Link.com,2013-03-12 23:38:00,
2013-03-12 19:53:00,51.3,49.9,29.68,SSW,202,6.3,-999.0,95,-99.99,,,0.43,Acu-Link.com,2013-03-12 23:53:00,
2013-03-12 20:09:00,51.3,49.9,29.67,WNW,292,2.2,-999.0,95,-99.99,,,0.48,Acu-Link.com,2013-03-13 00:09:00,
2013-03-12 20:24:00,51.4,50.0,29.67,ENE,67,3.7,-999.0,95,-99.99,,,0.50,Acu-Link.com,2013-03-13 00:24:00,
2013-03-12 20:40:00,51.6,50.2,29.66,South,180,4.7,-999.0,95,-99.99,,,0.50,Acu-Link.com,2013-03-13 00:40:00,
2013-03-12 20:55:00,52.0,50.6,29.67,South,180,3.2,-999.0,95,-99.99,,,0.50,Acu-Link.com,2013-03-13 00:55:00,
2013-03-12 21:10:00,51.8,50.4,29.68,South,180,4.2,-999.0,95,-99.99,,,0.51,Acu-Link.com,2013-03-13 01:10:00,
2013-03-12 21:25:00,52.0,50.6,29.68,SSW,202,4.2,-999.0,95,-99.99,,,0.51,Acu-Link.com,2013-03-13 01:25:00,
2013-03-12 21:40:00,51.8,50.4,29.68,SSW,202,6.3,-999.0,95,-99.99,,,0.51,Acu-Link.com,2013-03-13 01:40:00,
2013-03-12 22:11:00,51.4,50.0,29.68,South,180,1.7,-999.0,95,-99.99,,,0.51,Acu-Link.com,2013-03-13 02:11:00,
2013-03-12 22:26:00,51.4,50.0,29.67,SSE,157,2.2,-999.0,95,-99.99,,,0.51,Acu-Link.com,2013-03-13 02:26:00,
2013-03-12 22:41:00,51.3,49.9,29.68,SSW,202,2.2,-999.0,95,-99.99,,,0.51,Acu-Link.com,2013-03-13 02:41:00,
2013-03-12 22:57:00,50.9,49.5,29.68,NW,315,0.0,-999.0,95,-99.99,,,0.51,Acu-Link.com,2013-03-13 02:57:00,
2013-03-12 23:12:00,51.1,49.7,29.68,SSW,202,2.7,-999.0,95,-99.99,,,0.51,Acu-Link.com,2013-03-13 03:12:00,
2013-03-12 23:27:00,50.9,49.5,29.68,SSE,157,2.2,-999.0,95,-99.99,,,0.51,Acu-Link.com,2013-03-13 03:27:00,
2013-03-12 23:43:00,50.7,49.3,29.69,SW,225,4.7,-999.0,95,-99.99,,,0.51,Acu-Link.com,2013-03-13 03:43:00,
2013-03-12 23:58:00,50.2,48.8,29.68,West,270,0.0,-999.0,95,-99.99,,,0.51,Acu-Link.com,2013-03-13 03:58:00,